This is the latest recevied weather packets stored in our database for station/object N4DBJ. If no packets are shown the sender has not sent any weather packets the latest 10 day(s).
| Time | Temp. | Humidity | Pressure | Rain* | Wind** | Luminosity | Snow |
|---|---|---|---|---|---|---|---|
| 1777985501 | 16.11° C | 79% | 1008.9 hPa | 0 mm | - | 113 W/m² | - |
| 1777985197 | 16.11° C | 79% | 1008.9 hPa | 0 mm | - | 105 W/m² | - |
| 1777984894 | 16.11° C | 80% | 1008.9 hPa | 0 mm | - | 101 W/m² | - |
| 1777984589 | 16.11° C | 81% | 1008.6 hPa | 0 mm | - | 88 W/m² | - |
| 1777984286 | 15.56° C | 79% | 1008.7 hPa | 0 mm | - | 76 W/m² | - |
| 1777983983 | 15.56° C | 79% | 1009 hPa | 0 mm | - | 67 W/m² | - |
| 1777983680 | 15.56° C | 80% | 1008.8 hPa | 0 mm | - | 63 W/m² | - |
| 1777983377 | 15.56° C | 81% | 1009 hPa | 0 mm | - | 55 W/m² | - |
| 1777983074 | 15.56° C | 80% | 1009 hPa | 0 mm | - | 51 W/m² | - |
| 1777982770 | 15° C | 82% | 1009 hPa | 0 mm | - | 45 W/m² | - |
| 1777982466 | 15° C | 82% | 1008.8 hPa | 0 mm | - | 43 W/m² | - |
| 1777982160 | 15° C | 83% | 1008.8 hPa | 0 mm | - | 45 W/m² | - |
| 1777981858 | 14.44° C | 87% | 1008.6 hPa | 0 mm | - | 43 W/m² | - |
| 1777981555 | 13.89° C | 89% | 1008.6 hPa | 0 mm | - | 38 W/m² | - |
| 1777981251 | 13.33° C | 91% | 1008.7 hPa | 0 mm | - | 32 W/m² | - |
| 1777980947 | 12.78° C | 94% | 1008.6 hPa | 0 mm | - | 29 W/m² | - |
| 1777980644 | 12.22° C | 96% | 1008.5 hPa | 0 mm | - | 26 W/m² | - |
| 1777980340 | 12.22° C | 96% | 1008.4 hPa | 0 mm | - | 19 W/m² | - |
| 1777980039 | 12.22° C | 97% | 1008.2 hPa | 0 mm | - | 16 W/m² | - |
| 1777979732 | 11.67° C | 97% | 1008.2 hPa | 0 mm | - | 15 W/m² | - |
| 1777979429 | 11.67° C | 97% | 1008.1 hPa | 0 mm | - | 10 W/m² | - |
| 1777979125 | 11.11° C | 98% | 1008.1 hPa | 0 mm | - | 7 W/m² | - |
| 1777978822 | 11.11° C | 97% | 1008.3 hPa | 0 mm | - | 3 W/m² | - |
| 1777978519 | 11.11° C | 97% | 1008.3 hPa | 0 mm | - | 2 W/m² | - |
| 1777978214 | 11.11° C | 97% | 1008.2 hPa | 0 mm | - | 1 W/m² | - |
* Rain latest hour (hover to see other rain measurements)
** Current wind speed in m/s (hover to see current wind gust speed)